Lake Martin Weather Center

Moon Phase Calendar



Lake Martin Water Level
Online Cameras

 


      

Current Conditions in Dadeville
10/2/2022 2:52:48 PM

79°F
Feels Like 79
Clear
Humidity
41%
Pressure
29.97"
Wind
16.1 mph (NNW)
Dew Point
54°F
UV Index
4/10 (Moderate)
Visibility
6 mi

Hourly Forecast

Date & Time Sun, Oct 2
2:00 PM
Sun, Oct 2
3:00 PM
Sun, Oct 2
4:00 PM
Sun, Oct 2
5:00 PM
Sun, Oct 2
6:00 PM
Sun, Oct 2
7:00 PM
Sun, Oct 2
8:00 PM
Sun, Oct 2
9:00 PM
Sun, Oct 2
10:00 PM
Sun, Oct 2
11:00 PM
Mon, Oct 3
12:00 AM
Mon, Oct 3
1:00 AM
Mon, Oct 3
2:00 AM
Mon, Oct 3
3:00 AM
Mon, Oct 3
4:00 AM
Mon, Oct 3
5:00 AM
Mon, Oct 3
6:00 AM
Mon, Oct 3
7:00 AM
Mon, Oct 3
8:00 AM
Mon, Oct 3
9:00 AM
Mon, Oct 3
10:00 AM
Mon, Oct 3
11:00 AM
Mon, Oct 3
12:00 PM
Mon, Oct 3
1:00 PM
Mon, Oct 3
2:00 PM
Mon, Oct 3
3:00 PM
Mon, Oct 3
4:00 PM
Mon, Oct 3
5:00 PM
Mon, Oct 3
6:00 PM
Mon, Oct 3
7:00 PM
Mon, Oct 3
8:00 PM
Mon, Oct 3
9:00 PM
Mon, Oct 3
10:00 PM
Mon, Oct 3
11:00 PM
Tue, Oct 4
12:00 AM
Tue, Oct 4
1:00 AM
Tue, Oct 4
2:00 AM
Tue, Oct 4
3:00 AM
Tue, Oct 4
4:00 AM
Tue, Oct 4
5:00 AM
Tue, Oct 4
6:00 AM
Tue, Oct 4
7:00 AM
Tue, Oct 4
8:00 AM
Tue, Oct 4
9:00 AM
Tue, Oct 4
10:00 AM
Tue, Oct 4
11:00 AM
Tue, Oct 4
12:00 PM
Tue, Oct 4
1:00 PM
Condition
Clear

Clear

Clear

Clear

Clear

Clear

Clear

Clear

Clear

Clear

Clear

Clear

Clear

Clear

Clear

Clear

Clear

Clear

Clear

Clear

Clear

Clear

Clear

Clear

Clouds

Clouds

Clouds

Clouds

Clouds

Clouds

Clouds

Clouds

Clouds

Clouds

Clouds

Clouds

Clouds

Clouds

Clouds

Clouds

Clouds

Clouds

Clear

Clear

Clear

Clear

Clouds

Clouds
Temperature 80°F79°F80°F79°F77°F72°F68°F67°F66°F64°F62°F60°F59°F57°F56°F56°F55°F55°F60°F65°F69°F73°F76°F78°F79°F80°F80°F78°F72°F69°F69°F69°F68°F68°F67°F66°F65°F64°F63°F62°F59°F57°F62°F67°F72°F75°F78°F79°F
Feels Like 80°F79°F80°F79°F76°F72°F67°F66°F65°F63°F61°F59°F58°F57°F56°F55°F54°F54°F59°F64°F68°F72°F75°F78°F79°F80°F80°F78°F72°F69°F68°F68°F67°F67°F66°F66°F64°F63°F62°F61°F58°F56°F61°F66°F71°F75°F78°F79°F
Cloudiness 0%0%0%0%0%0%0%0%0%0%0%0%0%0%0%0%0%0%0%0%0%0%0%1%38%40%39%37%37%42%91%94%96%97%98%98%100%100%99%94%82%68%0%0%2%8%19%28%
Visibility 6 mi6 mi6 mi6 mi6 mi6 mi6 mi6 mi6 mi6 mi6 mi6 mi6 mi6 mi6 mi6 mi6 mi6 mi6 mi6 mi6 mi6 mi6 mi6 mi6 mi6 mi6 mi6 mi6 mi6 mi6 mi6 mi6 mi6 mi6 mi6 mi6 mi6 mi6 mi6 mi6 mi6 mi6 mi6 mi6 mi6 mi6 mi6 mi
Precipitation 0%0%0%0%0%0%0%0%0%0%0%0%0%0%0%0%0%0%0%0%0%0%0%0%0%0%0%0%0%0%0%0%0%0%0%0%0%0%0%0%0%0%0%0%0%0%0%0%
Humidity 40%41%40%41%46%53%61%60%59%61%66%71%76%80%83%86%89%90%76%62%53%48%44%41%39%38%38%40%53%55%55%56%57%58%59%60%61%63%65%69%75%82%70%60%51%45%41%38%
Dew Point 53°F54°F53°F54°F54°F54°F53°F53°F51°F51°F51°F51°F51°F51°F51°F51°F51°F51°F52°F51°F51°F52°F52°F52°F52°F52°F52°F52°F54°F52°F52°F52°F52°F52°F52°F52°F51°F51°F51°F51°F51°F51°F52°F52°F52°F52°F52°F52°F
Pressure 29.97"29.97"29.97"29.97"29.97"30"30.03"30.03"30.03"30.06"30.03"30.03"30.06"30.06"30.06"30.09"30.09"30.12"30.12"30.12"30.15"30.12"30.12"30.09"30.06"30.03"30.03"30"30.03"30.03"30.06"30.09"30.09"30.09"30.09"30.09"30.09"30.09"30.09"30.09"30.12"30.12"30.15"30.15"30.15"30.12"30.12"30.09"
Wind Speed 12.3 mph12.6 mph12.8 mph10.6 mph9.1 mph7.7 mph8.4 mph10.8 mph11.6 mph10.5 mph9.2 mph7.9 mph6.6 mph6.2 mph6.3 mph6 mph5.7 mph5.4 mph7.9 mph8.2 mph7.2 mph6.4 mph5.8 mph5.2 mph5.1 mph5.1 mph5.4 mph5.4 mph3.6 mph4.3 mph4 mph3.7 mph3.5 mph3.9 mph3.9 mph4.1 mph4 mph4.1 mph3.9 mph3.8 mph3.1 mph2.7 mph3.5 mph3.9 mph3.2 mph3.3 mph3.4 mph5 mph
Wind
Direction
349°
N
352°
N
357°
N

N

N
14°
NNE
18°
NNE
19°
NNE
17°
NNE
19°
NNE
22°
NNE
25°
NNE
27°
NNE
34°
NE
47°
NE
57°
ENE
61°
ENE
59°
ENE
73°
ENE
80°
E
75°
ENE
70°
ENE
63°
ENE
53°
NE
44°
NE
41°
NE
40°
NE
42°
NE
45°
NE
48°
NE
54°
NE
56°
NE
60°
ENE
60°
ENE
89°
E
121°
ESE
137°
SE
145°
SE
127°
SE
127°
SE
130°
SE
117°
ESE
124°
SE
140°
SE
166°
SSE
213°
SSW
253°
WSW
273°
W

Daily Forecast

Date High Low Precip. Humidity
Today
Oct 2

Clear
80 °F
54 °F
0%
37%
Monday
Oct 3

Clear
80 °F
55 °F
0%
44%
Tuesday
Oct 4

Clouds
81 °F
57 °F
0%
38%
Wednesday
Oct 5

Clouds
80 °F
54 °F
0%
19%
Thursday
Oct 6

Clear
84 °F
53 °F
0%
18%
Friday
Oct 7

Clouds
87 °F
59 °F
0%
23%
Saturday
Oct 8

Clouds
80 °F
59 °F
0%
26%
Sunday
Oct 9

Clouds
78 °F
53 °F
0%
26%
Monday
Oct 10

Clouds
79 °F
53 °F
0%
26%
Tuesday
Oct 11

Clouds
84 °F
56 °F
0%
27%
Wednesday
Oct 12

Clouds
84 °F
57 °F
0%
34%
Thursday
Oct 13

Clouds
85 °F
58 °F
3%
32%
Friday
Oct 14

Clear
77 °F
50 °F
0%
19%
Saturday
Oct 15

Clouds
79 °F
55 °F
0%
51%
Sunday
Oct 16

Rain
71 °F
63 °F
95%
79%
Monday
Oct 17

Rain
71 °F
66 °F
100%
89%

Temperature 8-14 Day Outlook



Precipitation 8-14 Day Outlook






About Us
Contact Us
Site Map
Search Site
Advertise With Us
   
www.LakeMartin.com
THE LAKE MARTIN WEBSITE

Copyright 2022, Lakes Online
Privacy    |    Legal